TimeMDT,TemperatureF,Dew PointF,Humidity,Sea Level PressureIn,VisibilityMPH,Wind Direction,Wind SpeedMPH,Gust SpeedMPH,PrecipitationIn,Events,Conditions,WindDirDegrees,DateUTC
12:35 AM,59.0,53.6,82,30.19,10.0,ENE,3.5,-,N/A,,Clear,70,2012-09-07 06:35:00
12:55 AM,59.0,53.6,82,30.19,10.0,Calm,Calm,-,N/A,,Clear,0,2012-09-07 06:55:00
1:15 AM,60.8,51.8,72,30.18,10.0,Calm,Calm,-,N/A,,Clear,0,2012-09-07 07:15:00
1:35 AM,57.2,51.8,82,30.19,10.0,SSE,3.5,-,N/A,,Clear,160,2012-09-07 07:35:00
1:55 AM,57.2,53.6,88,30.19,10.0,ESE,6.9,-,N/A,,Clear,110,2012-09-07 07:55:00
2:15 AM,57.2,51.8,82,30.19,10.0,East,6.9,-,N/A,,Clear,100,2012-09-07 08:15:00
2:35 AM,57.2,51.8,82,30.19,10.0,Calm,Calm,-,N/A,,Clear,0,2012-09-07 08:35:00
2:55 AM,57.2,51.8,82,30.19,10.0,East,3.5,-,N/A,,Clear,90,2012-09-07 08:55:00
3:15 AM,57.2,51.8,82,30.19,10.0,Calm,Calm,-,N/A,,Clear,0,2012-09-07 09:15:00
3:35 AM,57.2,51.8,82,30.19,10.0,ESE,5.8,-,N/A,,Clear,120,2012-09-07 09:35:00
3:55 AM,55.4,51.8,88,30.19,10.0,East,4.6,-,N/A,,Clear,90,2012-09-07 09:55:00
4:15 AM,55.4,51.8,88,30.19,10.0,Calm,Calm,-,N/A,,Clear,0,2012-09-07 10:15:00
4:55 AM,53.6,48.2,82,30.20,10.0,Calm,Calm,-,N/A,,Clear,0,2012-09-07 10:55:00
5:15 AM,53.6,50.0,88,30.21,10.0,South,3.5,-,N/A,,Clear,170,2012-09-07 11:15:00
5:35 AM,55.4,51.8,88,30.22,10.0,Calm,Calm,-,N/A,,Clear,0,2012-09-07 11:35:00
5:55 AM,55.4,48.2,77,30.22,10.0,Calm,Calm,-,N/A,,Clear,0,2012-09-07 11:55:00
6:35 AM,51.8,48.2,88,30.23,10.0,ESE,4.6,-,N/A,,Clear,120,2012-09-07 12:35:00
6:49 AM,53.6,48.2,82,30.24,15.0,ESE,3.5,-,N/A,,Partly Cloudy,110,2012-09-07 12:49:00
7:54 AM,55.4,51.8,88,30.26,15.0,Calm,Calm,-,N/A,,Scattered Clouds,0,2012-09-07 13:54:00
8:47 AM,62.6,51.8,68,30.27,15.0,SE,4.6,-,N/A,,Partly Cloudy,140,2012-09-07 14:47:00
9:47 AM,64.4,53.6,68,30.29,15.0,SE,4.6,-,N/A,,Partly Cloudy,140,2012-09-07 15:47:00
11:46 AM,71.6,53.6,53,30.30,15.0,SSE,5.8,-,N/A,,Partly Cloudy,160,2012-09-07 17:46:00
12:54 PM,71.6,55.4,57,30.29,15.0,SSW,8.1,-,N/A,,Scattered Clouds,200,2012-09-07 18:54:00
1:47 PM,71.6,55.4,57,30.28,15.0,SSW,6.9,-,N/A,,Scattered Clouds,200,2012-09-07 19:47:00
3:54 PM,77.0,48.2,36,30.24,15.0,SW,6.9,-,N/A,,Partly Cloudy,230,2012-09-07 21:54:00
4:47 PM,78.8,48.2,34,30.23,15.0,SSW,6.9,-,N/A,,Partly Cloudy,200,2012-09-07 22:47:00
5:47 PM,78.8,44.6,30,30.22,15.0,WNW,5.8,13.8,N/A,,Partly Cloudy,300,2012-09-07 23:47:00
6:53 PM,77.0,44.6,32,30.23,15.0,NW,9.2,-,N/A,,Partly Cloudy,310,2012-09-08 00:53:00
7:51 PM,71.6,44.6,38,30.24,15.0,WNW,10.4,-,N/A,,Partly Cloudy,300,2012-09-08 01:51:00
8:54 PM,66.2,44.6,46,30.26,15.0,NNE,6.9,-,N/A,,Clear,20,2012-09-08 02:54:00
9:15 PM,66.2,42.8,43,30.26,10.0,North,6.9,-,N/A,,Clear,360,2012-09-08 03:15:00
9:35 PM,66.2,42.8,43,30.27,10.0,North,6.9,-,N/A,,Clear,10,2012-09-08 03:35:00
9:56 PM,64.4,39.2,40,30.27,10.0,SE,6.9,-,N/A,,Clear,140,2012-09-08 03:56:00
10:35 PM,60.8,44.6,55,30.28,10.0,Calm,Calm,-,N/A,,Clear,0,2012-09-08 04:35:00
10:55 PM,60.8,46.4,59,30.29,10.0,ESE,8.1,-,N/A,,Clear,120,2012-09-08 04:55:00
11:15 PM,60.8,44.6,55,30.29,10.0,SSE,8.1,-,N/A,,Clear,150,2012-09-08 05:15:00
11:55 PM,57.2,42.8,59,30.29,10.0,ESE,5.8,-,N/A,,Clear,110,2012-09-08 05:55:00